This is the latest recevied weather packets stored in our database for station/object KB3YCK-2. If no packets are shown the sender has not sent any weather packets the latest 10 day(s).
| Time | Temp. | Humidity | Pressure | Rain* | Wind** | Luminosity | Snow |
|---|---|---|---|---|---|---|---|
| 1777843504 | 16.11° C | 52% | 1013.4 hPa | 0 mm | - | 439 W/m² | - |
| 1777842307 | 15.56° C | 50% | 1013.4 hPa | 0 mm | - | 494 W/m² | - |
| 1777839607 | 15° C | 54% | 1013.6 hPa | 0 mm | - | 673 W/m² | - |
| 1777836007 | 14.44° C | 60% | 1014.2 hPa | 0 mm | - | 863 W/m² | - |
| 1777831507 | 13.33° C | 57% | 1014.6 hPa | 0 mm | - | 1004 W/m² | - |
| 1777831210 | 13.33° C | 58% | 1014.6 hPa | 0 mm | - | 926 W/m² | - |
| 1777830305 | 12.78° C | 57% | 1014.7 hPa | 0 mm | - | 158 W/m² | - |
| 1777828806 | 12.22° C | 58% | 1014.9 hPa | 0 mm | - | 1034 W/m² | - |
| 1777827303 | 12.22° C | 61% | 1015.1 hPa | 0 mm | - | 947 W/m² | - |
| 1777827006 | 12.22° C | 60% | 1015 hPa | 0 mm | - | 1041 W/m² | - |
| 1777826737 | 11.67° C | 64% | 1015.2 hPa | 0 mm | - | 1007 W/m² | - |
| 1777824302 | 11.11° C | 63% | 1015.2 hPa | 0 mm | - | 1023 W/m² | - |
| 1777822802 | 11.11° C | 68% | 1015.5 hPa | 0 mm | - | 958 W/m² | - |
| 1777821002 | 10.56° C | 66% | 1015.5 hPa | 0 mm | - | 1009 W/m² | - |
| 1777820703 | 9.44° C | 71% | 1015.5 hPa | 0 mm | - | 881 W/m² | - |
| 1777818907 | 9.44° C | 71% | 1015.7 hPa | 0 mm | - | 902 W/m² | - |
| 1777818007 | 9.44° C | 69% | 1015.7 hPa | 0 mm | - | 777 W/m² | - |
| 1777816816 | 8.89° C | 70% | 1015.6 hPa | 0 mm | - | 724 W/m² | - |
| 1777813506 | 7.22° C | 74% | 1015.4 hPa | 0 mm | - | 63 W/m² | - |
| 1777812318 | 6.67° C | 75% | 1015.2 hPa | 0 mm | - | 47 W/m² | - |
| 1777811415 | 7.22° C | 74% | 1015.1 hPa | 0 mm | - | 44 W/m² | - |
| 1777807824 | 6.11° C | 77% | 1014.6 hPa | 0 mm | - | 30 W/m² | - |
| 1777805707 | 6.11° C | 78% | 1014 hPa | 0 mm | - | 37 W/m² | - |
| 1777801212 | 5.56° C | 81% | 1012.9 hPa | 0 mm | - | 0 W/m² | - |
| 1777800906 | 5.56° C | 81% | 1012.9 hPa | 0 mm | - | 0 W/m² | - |
* Rain latest hour (hover to see other rain measurements)
** Current wind speed in m/s (hover to see current wind gust speed)